• En España
  • Lista de países
  • Para 7 días
  • Temperatura del agua
  • Mapa Satelital
  • El tiempo en el mapa
  • Informadores
  • user-avatar
    Iniciar sesión

    Tiempo cada hora Pinsk

    Hoy, 23 Mayo, Miércoles

    Tiempo Temperatura Precipitaciones Viento Presión Humedad
    00:00 +13°C° 0,1 mm 3 mps 752 mmHg 91%
    01:00 +14°C° 0,1 mm 2 mps 752 mmHg 93%
    02:00 +13°C° 0,1 mm 2 mps 752 mmHg 95%
    03:00 +13°C° 0 mm 2 mps 752 mmHg 95%
    04:00 +13°C° 0 mm 2 mps 752 mmHg 95%
    05:00 +13°C° 0 mm 2 mps 752 mmHg 95%
    06:00 +15°C° 0 mm 2 mps 753 mmHg 89%
    07:00 +17°C° 0 mm 2 mps 753 mmHg 83%
    08:00 +19°C° 0 mm 2 mps 753 mmHg 78%
    09:00 +21°C° 0,2 mm 2 mps 753 mmHg 71%
    10:00 +23°C° 0,2 mm 2 mps 753 mmHg 64%
    11:00 +25°C° 0,2 mm 2 mps 753 mmHg 57%
    12:00 +25°C° 0,2 mm 2 mps 753 mmHg 55%
    13:00 +26°C° 0,2 mm 2 mps 753 mmHg 53%
    14:00 +26°C° 0,2 mm 2 mps 753 mmHg 51%
    15:00 +25°C° 0,3 mm 2 mps 753 mmHg 55%
    16:00 +25°C° 0,3 mm 2 mps 752 mmHg 59%
    17:00 +24°C° 0,3 mm 2 mps 752 mmHg 64%
    18:00 +23°C° 0,2 mm 2 mps 752 mmHg 70%
    19:00 +20°C° 0,2 mm 2 mps 753 mmHg 77%
    20:00 +18°C° 0,2 mm 2 mps 753 mmHg 83%
    21:00 +17°C° 0,1 mm 2 mps 753 mmHg 85%
    22:00 +16°C° 0,1 mm 2 mps 753 mmHg 86%
    23:00 +15°C° 0,1 mm 2 mps 753 mmHg 88%

    Mañana, 24 Mayo, Jueves

    Tiempo Temperatura Precipitaciones Viento Presión Humedad
    00:00 +14°C° 0 mm 2 mps 753 mmHg 89%
    01:00 +13°C° 0 mm 2 mps 753 mmHg 90%
    02:00 +13°C° 0 mm 2 mps 753 mmHg 91%
    03:00 +12°C° 0 mm 2 mps 753 mmHg 92%
    04:00 +12°C° 0 mm 2 mps 753 mmHg 93%
    05:00 +12°C° 0 mm 2 mps 753 mmHg 94%
    06:00 +14°C° 0 mm 2 mps 754 mmHg 88%
    07:00 +16°C° 0 mm 3 mps 754 mmHg 82%
    08:00 +17°C° 0 mm 3 mps 754 mmHg 76%
    09:00 +19°C° 0 mm 3 mps 754 mmHg 69%
    10:00 +21°C° 0 mm 3 mps 754 mmHg 61%
    11:00 +22°C° 0 mm 4 mps 754 mmHg 54%
    12:00 +23°C° 0 mm 4 mps 754 mmHg 53%
    13:00 +23°C° 0 mm 4 mps 753 mmHg 52%
    14:00 +25°C° 0 mm 4 mps 753 mmHg 51%
    15:00 +25°C° 0,1 mm 4 mps 753 mmHg 53%
    16:00 +23°C° 0,1 mm 4 mps 753 mmHg 55%
    17:00 +23°C° 0,1 mm 4 mps 752 mmHg 57%
    18:00 +21°C° 0,1 mm 4 mps 752 mmHg 65%
    19:00 +19°C° 0,1 mm 3 mps 752 mmHg 73%
    20:00 +18°C° 0,1 mm 3 mps 752 mmHg 81%
    21:00 +17°C° 0 mm 3 mps 752 mmHg 85%
    22:00 +16°C° 0 mm 2 mps 752 mmHg 89%
    23:00 +15°C° 0 mm 2 mps 752 mmHg 92%

    Pasado mañana, 25 Mayo, Viernes

    Tiempo Temperatura Precipitaciones Viento Presión Humedad
    00:00 +14°C° 0 mm 2 mps 752 mmHg 93%
    01:00 +14°C° 0 mm 2 mps 752 mmHg 94%
    02:00 +13°C° 0 mm 2 mps 752 mmHg 95%
    03:00 +13°C° 0 mm 2 mps 752 mmHg 95%
    04:00 +13°C° 0 mm 2 mps 753 mmHg 95%
    05:00 +13°C° 0 mm 2 mps 753 mmHg 95%
    06:00 +15°C° 0 mm 2 mps 753 mmHg 89%
    07:00 +17°C° 0 mm 2 mps 753 mmHg 82%
    08:00 +19°C° 0 mm 2 mps 754 mmHg 75%
    09:00 +21°C° 0 mm 3 mps 754 mmHg 67%
    10:00 +24°C° 0 mm 3 mps 754 mmHg 59%
    11:00 +25°C° 0 mm 3 mps 754 mmHg 52%
    12:00 +26°C° 0,1 mm 4 mps 754 mmHg 51%
    13:00 +26°C° 0,1 mm 4 mps 754 mmHg 50%
    14:00 +27°C° 0,1 mm 4 mps 754 mmHg 50%
    15:00 +27°C° 0,1 mm 4 mps 754 mmHg 53%
    16:00 +26°C° 0,1 mm 4 mps 754 mmHg 56%
    17:00 +26°C° 0,1 mm 4 mps 754 mmHg 60%
    18:00 +23°C° 0,1 mm 4 mps 754 mmHg 65%
    19:00 +22°C° 0,1 mm 3 mps 755 mmHg 71%
    20:00 +20°C° 0,1 mm 3 mps 755 mmHg 76%
    21:00 +20°C° 0 mm 3 mps 755 mmHg 78%
    22:00 +19°C° 0 mm 4 mps 756 mmHg 79%
    23:00 +18°C° 0 mm 4 mps 756 mmHg 81%

    26 Mayo, Sábado

    Tiempo Temperatura Precipitaciones Viento Presión Humedad
    00:00 +17°C° 0 mm 4 mps 757 mmHg 83%
    01:00 +17°C° 0 mm 4 mps 757 mmHg 84%
    02:00 +15°C° 0 mm 4 mps 757 mmHg 86%
    03:00 +14°C° 0 mm 4 mps 758 mmHg 85%
    04:00 +14°C° 0 mm 4 mps 758 mmHg 84%
    05:00 +13°C° 0 mm 4 mps 758 mmHg 84%
    06:00 +14°C° 0 mm 4 mps 758 mmHg 78%
    07:00 +15°C° 0 mm 5 mps 759 mmHg 73%
    08:00 +16°C° 0 mm 5 mps 759 mmHg 67%
    09:00 +19°C° 0 mm 5 mps 759 mmHg 62%
    10:00 +20°C° 0 mm 5 mps 759 mmHg 56%
    11:00 +21°C° 0 mm 5 mps 759 mmHg 51%
    12:00 +22°C° 0 mm 5 mps 759 mmHg 49%
    13:00 +23°C° 0 mm 5 mps 759 mmHg 47%
    14:00 +25°C° 0 mm 5 mps 759 mmHg 45%
    15:00 +25°C° 0 mm 5 mps 758 mmHg 46%
    16:00 +23°C° 0 mm 5 mps 758 mmHg 47%
    17:00 +23°C° 0 mm 5 mps 758 mmHg 48%
    18:00 +21°C° 0 mm 4 mps 758 mmHg 53%
    19:00 +19°C° 0 mm 4 mps 758 mmHg 58%
    20:00 +18°C° 0 mm 3 mps 758 mmHg 63%
    21:00 +16°C° 0 mm 3 mps 759 mmHg 64%
    22:00 +14°C° 0 mm 3 mps 759 mmHg 66%
    23:00 +13°C° 0 mm 4 mps 759 mmHg 67%

    27 Mayo, Domingo

    Tiempo Temperatura Precipitaciones Viento Presión Humedad
    00:00 +13°C° 0 mm 3 mps 759 mmHg 71%
    01:00 +12°C° 0 mm 3 mps 759 mmHg 74%
    02:00 +11°C° 0 mm 3 mps 759 mmHg 78%
    03:00 +11°C° 0 mm 3 mps 759 mmHg 80%
    04:00 +10°C° 0 mm 3 mps 759 mmHg 82%
    05:00 +10°C° 0 mm 3 mps 759 mmHg 84%
    06:00 +12°C° 0 mm 4 mps 759 mmHg 78%
    07:00 +14°C° 0 mm 4 mps 759 mmHg 71%
    08:00 +17°C° 0 mm 4 mps 759 mmHg 64%
    09:00 +18°C° 0 mm 4 mps 759 mmHg 59%
    10:00 +20°C° 0 mm 4 mps 759 mmHg 53%
    11:00 +21°C° 0 mm 5 mps 759 mmHg 48%
    12:00 +22°C° 0 mm 4 mps 759 mmHg 46%
    13:00 +22°C° 0 mm 4 mps 759 mmHg 44%
    14:00 +23°C° 0 mm 4 mps 758 mmHg 42%
    15:00 +23°C° 0 mm 4 mps 758 mmHg 43%
    16:00 +24°C° 0 mm 3 mps 758 mmHg 44%
    17:00 +24°C° 0 mm 3 mps 758 mmHg 45%
    18:00 +21°C° 0 mm 3 mps 758 mmHg 52%
    19:00 +19°C° 0 mm 3 mps 758 mmHg 59%
    20:00 +17°C° 0 mm 2 mps 758 mmHg 66%
    21:00 +16°C° 0 mm 2 mps 758 mmHg 69%
    22:00 +15°C° 0 mm 2 mps 758 mmHg 71%
    23:00 +14°C° 0 mm 2 mps 759 mmHg 74%

    28 Mayo, Lunes

    Tiempo Temperatura Precipitaciones Viento Presión Humedad
    00:00 +13°C° 0 mm 2 mps 759 mmHg 77%
    01:00 +13°C° 0 mm 2 mps 759 mmHg 79%
    02:00 +12°C° 0 mm 2 mps 759 mmHg 81%
    03:00 +12°C° 0 mm 2 mps 759 mmHg 82%
    04:00 +10°C° 0 mm 2 mps 759 mmHg 83%
    05:00 +10°C° 0 mm 2 mps 759 mmHg 84%
    06:00 +13°C° 0 mm 2 mps 759 mmHg 77%
    07:00 +16°C° 0 mm 2 mps 759 mmHg 70%
    08:00 +18°C° 0 mm 3 mps 759 mmHg 63%
    09:00 +19°C° 0 mm 3 mps 759 mmHg 57%
    10:00 +21°C° 0 mm 3 mps 759 mmHg 52%
    11:00 +22°C° 0 mm 4 mps 759 mmHg 47%
    12:00 +23°C° 0 mm 4 mps 759 mmHg 44%
    13:00 +25°C° 0 mm 3 mps 759 mmHg 42%
    14:00 +26°C° 0 mm 3 mps 758 mmHg 40%
    15:00 +26°C° 0 mm 3 mps 758 mmHg 41%
    16:00 +26°C° 0 mm 3 mps 758 mmHg 42%
    17:00 +26°C° 0 mm 3 mps 757 mmHg 43%
    18:00 +24°C° 0 mm 3 mps 757 mmHg 50%
    19:00 +21°C° 0 mm 2 mps 757 mmHg 57%
    20:00 +19°C° 0 mm 2 mps 757 mmHg 65%
    21:00 +18°C° 0 mm 2 mps 757 mmHg 69%
    22:00 +17°C° 0 mm 2 mps 757 mmHg 72%
    23:00 +16°C° 0 mm 2 mps 757 mmHg 76%
    Mostrar más